Location: Unspecified
(38.9820°N, 94.4650°W)
Time: 20:00:53
(UTC-05:00)

Resurs 1-4 Rocket - Visible Passes

Search period start: 24 August 2016 00:00
Search period end: 03 September 2016 00:00
Orbit: 799 x 815 km, 98.4° (Epoch: 23 August)

Date Brightness Start Highest point End Pass type
(mag) Time Alt. Az. Time Alt. Az. Time Alt. Az.
24 Aug 1.9 04:07:46 10° NNE 04:13:04 88° WNW 04:13:28 77° SSW visible
24 Aug 4.1 05:50:38 10° NW 05:52:05 11° WNW 05:53:32 10° WNW visible
25 Aug 2.5 03:43:20 10° NNE 03:48:30 54° E 03:48:33 54° ESE visible
25 Aug 3.6 05:24:20 10° NNW 05:27:53 19° WNW 05:29:37 16° W visible
26 Aug 3.5 03:19:10 10° NE 03:23:37 32° E 03:23:37 32° E visible
26 Aug 3.0 04:59:03 10° N 05:03:36 30° WNW 05:04:42 28° W visible
27 Aug 4.2 02:55:28 10° NE 02:58:41 19° E 02:58:41 19° E visible
27 Aug 2.3 04:34:08 10° N 04:39:13 50° WNW 04:39:46 48° W visible
28 Aug 4.8 02:33:32 10° E 02:33:46 10° E 02:33:46 10° E visible
28 Aug 1.9 04:09:27 10° NNE 04:14:45 85° WNW 04:14:50 84° WSW visible
28 Aug 4.1 05:52:40 10° NW 05:53:45 11° WNW 05:54:50 10° WNW visible
29 Aug 2.6 03:45:00 10° NNE 03:49:54 56° E 03:49:54 56° E visible
29 Aug 3.6 05:26:06 10° NNW 05:29:33 18° WNW 05:30:59 16° W visible
30 Aug 3.5 03:20:49 10° NNE 03:24:59 32° E 03:24:59 32° E visible
30 Aug 3.0 05:00:47 10° N 05:05:16 29° WNW 05:06:03 28° W visible
31 Aug 4.3 02:57:03 10° NE 03:00:03 19° E 03:00:03 19° E visible
31 Aug 2.3 04:35:51 10° N 04:40:54 48° WNW 04:41:07 48° W visible
01 Sep 4.8 02:34:38 10° ENE 02:35:07 11° E 02:35:07 11° E visible
01 Sep 2.0 04:11:08 10° N 04:16:11 78° NNW 04:16:11 78° NNW visible
01 Sep 4.1 05:54:55 10° NW 05:55:24 10° WNW 05:55:53 10° WNW visible
02 Sep 2.6 03:46:40 10° NNE 03:51:16 55° ENE 03:51:16 55° ENE visible
02 Sep 3.7 05:27:53 10° NNW 05:31:13 17° WNW 05:32:20 16° WNW visible
